FW1991 Weather Reports


time (UTC)temp
C
wind
direction
speed
KPH
gust
KPH
rain 1hr
cm
rain 24hr
cm
rain mn
cm
humidity
%
barometer
mb
20260510044502 23 136 0.0 4.8 0.00 0.18 0.18 80 1011.7
20260510043002 23 146 0.0 3.2 0.00 0.18 0.18 80 1011.7
20260510041503 24 146 0.0 1.6 0.00 0.18 0.18 80 1011.7
20260510040002 24 146 0.0 1.6 0.00 0.18 0.18 80 1011.5
20260510034618 25 146 0.0 0.0 0.00 0.18 0.18 79 1011.5
20260510033105 25 146 0.0 3.2 0.00 0.18 0.18 79 1011.3
20260510031601 25 146 0.0 3.2 0.00 0.18 0.18 78 1011.1
20260510030109 25 109 0.0 1.6 0.00 0.18 0.18 78 1011.0
20260510024600 26 104 0.0 3.2 0.00 0.18 0.18 78 1010.9
20260510023057 26 136 0.0 6.4 0.00 0.18 0.18 77 1010.5
20260510021603 26 134 0.0 4.8 0.00 0.18 0.18 75 1010.3
20260510020056 27 103 1.6 6.4 0.00 0.18 0.18 73 1010.0
20260510014601 27 126 0.0 6.4 0.00 0.18 0.18 71 1009.9
20260510013112 27 157 0.0 3.2 0.00 0.18 0.18 69 1009.8
20260510011554 28 157 0.0 3.2 0.00 0.18 0.18 67 1009.7
20260510010054 28 168 0.0 9.7 0.00 0.18 0.18 64 1009.6
20260510004552 29 155 0.0 4.8 0.00 0.18 0.18 63 1009.5
20260510003103 29 115 1.6 11.3 0.00 0.18 0.18 62 1009.3
20260510001552 30 141 1.6 8.0 0.00 0.18 0.18 56 1009.2
20260510000111 30 85 1.6 4.8 0.00 0.18 0.18 53 1009.1
20260509234550 30 168 1.6 6.4 0.00 0.18 0.18 52 1009.0
20260509233049 30 113 0.0 12.9 0.00 0.18 0.18 52 1008.9
20260509231550 30 58 1.6 8.0 0.00 0.18 0.18 51 1008.9
20260509230049 30 60 1.6 11.3 0.00 0.18 0.18 51 1008.9
20260509224546 30 82 1.6 6.4 0.00 0.18 0.18 52 1008.9
20260509223046 30 64 3.2 8.0 0.00 0.18 0.18 52 1008.9
20260509221548 30 104 1.6 8.0 0.00 0.18 0.18 53 1008.9
20260509220045 30 134 0.0 11.3 0.00 0.18 0.18 56 1008.9
20260509214557 30 76 0.0 12.9 0.00 0.18 0.18 53 1008.9
20260509213040 30 82 0.0 14.5 0.00 0.18 0.18 54 1009.2
20260509211539 31 59 3.2 12.9 0.00 0.18 0.18 53 1009.4
20260509210045 30 73 1.6 9.7 0.00 0.18 0.18 48 1009.6
20260509204536 30 120 0.0 8.0 0.00 0.18 0.18 48 1009.7
20260509203039 30 78 3.2 11.3 0.00 0.18 0.18 48 1009.9
20260509201533 29 101 1.6 19.3 0.00 0.18 0.18 51 1010.0
20260509200038 28 84 8.0 29.0 0.00 0.18 0.18 49 1010.7
20260509194544 28 78 3.2 16.1 0.00 0.18 0.18 54 1010.8
20260509193035 32 62 1.6 17.7 0.00 0.18 0.18 50 1010.6
20260509191524 32 288 3.2 16.1 0.00 0.18 0.18 57 1010.4
20260509190022 31 347 3.2 11.3 0.00 0.18 0.18 59 1010.5
20260509184520 31 340 1.6 11.3 0.00 0.18 0.18 62 1010.8
20260509183016 30 350 0.0 6.4 0.00 0.18 0.18 64 1011.0
20260509181515 30 275 1.6 4.8 0.00 0.18 0.18 68 1011.2
20260509180014 31 280 0.0 8.0 0.00 0.18 0.18 68 1011.3
20260509174530 30 309 1.6 8.0 0.00 0.18 0.18 71 1011.3
20260509173009 30 150 1.6 9.7 0.00 0.18 0.18 70 1011.9
20260509171507 30 281 0.0 6.4 0.00 0.18 0.18 73 1012.0
20260509170003 29 284 1.6 8.0 0.00 0.18 0.18 75 1011.9
20260509164559 28 259 0.0 6.4 0.00 0.18 0.18 78 1011.9
20260509163101 27 225 0.0 6.4 0.00 0.18 0.18 81 1012.1
20260509161550 26 205 1.6 8.0 0.00 0.18 0.18 85 1012.0
20260509160047 25 213 1.6 9.7 0.00 0.18 0.18 91 1012.1
20260509154541 23 225 0.0 9.7 0.00 0.18 0.18 96 1012.3
20260509153048 22 272 1.6 12.9 0.00 0.18 0.18 97 1012.1
20260509151540 22 179 3.2 9.7 0.00 0.18 0.18 98 1012.0
20260509150041 22 208 0.0 6.4 0.00 0.18 0.18 98 1012.0
20260509144535 22 215 1.6 6.4 0.00 0.18 0.18 98 1011.9
20260509143037 22 192 0.0 6.4 0.00 0.18 0.18 98 1011.8
20260509141534 22 184 1.6 14.5 0.00 0.18 0.18 98 1011.4
20260509140038 22 71 1.6 4.8 0.00 0.18 0.18 98 1011.2
20260509134532 22 336 0.0 4.8 0.00 0.18 0.18 98 1011.3
20260509133030 22 341 0.0 1.6 0.00 0.18 0.18 99 1011.6
20260509131531 21 342 0.0 4.8 0.00 0.18 0.18 98 1012.1
20260509130029 21 342 0.0 0.0 0.00 0.18 0.18 98 1012.2
20260509124528 21 343 0.0 0.0 0.00 0.18 0.18 98 1011.8
20260509123028 21 342 0.0 0.0 0.00 0.18 0.18 98 1011.5
20260509121526 21 342 0.0 0.0 0.00 0.18 0.18 97 1011.5
20260509120030 21 343 0.0 4.8 0.00 0.18 0.18 97 1011.3
20260509114525 21 343 0.0 4.8 0.00 0.18 0.18 97 1011.8
20260509113022 21 343 0.0 4.8 0.15 0.18 0.18 97 1012.3
20260509111523 21 341 0.0 6.4 0.18 0.18 0.18 97 1012.6
20260509110025 21 336 0.0 1.6 0.18 0.18 0.18 97 1012.6
20260509104521 21 336 0.0 3.2 0.18 0.18 0.18 97 1012.9
20260509103021 21 336 0.0 4.8 0.00 0.00 0.00 97 1012.8
20260509101520 21 13 0.0 3.2 0.00 0.00 0.00 97 1012.8
20260509100017 21 65 0.0 1.6 0.00 0.00 0.00 97 1012.0
20260509094516 21 65 0.0 0.0 0.00 0.00 0.00 96 1011.3
20260509093017 21 65 0.0 1.6 0.00 0.00 0.00 96 1011.4
20260509091515 21 65 0.0 3.2 0.00 0.00 0.00 96 1011.2
20260509090016 21 65 0.0 3.2 0.00 0.00 0.00 96 1011.2
20260509084513 21 65 0.0 1.6 0.00 0.00 0.00 96 1011.4
20260509083016 21 65 0.0 3.2 0.00 0.00 0.00 96 1011.7
20260509081512 21 65 0.0 0.0 0.00 0.00 0.00 95 1011.9
20260509080014 21 65 0.0 3.2 0.00 0.00 0.00 95 1011.5
20260509074511 21 65 0.0 0.0 0.00 0.00 0.00 95 1011.9
20260509073010 21 65 0.0 0.0 0.00 0.00 0.00 94 1011.8
20260509071510 21 65 0.0 0.0 0.00 0.00 0.00 94 1012.2
20260509070008 21 64 0.0 3.2 0.00 0.00 0.00 93 1012.2
20260509064505 22 64 0.0 4.8 0.00 0.00 0.00 93 1011.7
20260509063004 22 132 0.0 4.8 0.00 0.00 0.00 92 1011.7
20260509061502 22 170 0.0 4.8 0.00 0.00 0.00 92 1011.7
20260509060003 22 146 1.6 9.7 0.00 0.00 0.00 92 1011.2
20260509054502 22 162 0.0 12.9 0.00 0.00 0.00 91 1011.5
20260509053104 22 140 0.0 6.4 0.00 0.00 0.00 91 1011.2
20260509051603 22 173 1.6 4.8 0.00 0.00 0.00 90 1010.8
20260509050055 22 178 0.0 6.4 0.00 0.00 0.00 90 1010.9